• In Portugal
  • List of Countries
  • For 7 days
  • Water Temperature
  • Satellite Maps
  • Weather Map
  • Weather Widgets
  • user-avatar
    Login

    Hourly Weather Elbasan

    Today, 23 April, Monday

    Time Temperature Precipitation Wind Pressure Humidity
    00:00 +15°C° 0 mm 1 mps 736 mmHg 89%
    01:00 +14°C° 0 mm 1 mps 736 mmHg 88%
    02:00 +14°C° 0 mm 1 mps 736 mmHg 86%
    03:00 +14°C° 0 mm 1 mps 736 mmHg 85%
    04:00 +14°C° 0 mm 1 mps 736 mmHg 83%
    05:00 +15°C° 0 mm 1 mps 736 mmHg 77%
    06:00 +18°C° 0 mm 1 mps 736 mmHg 70%
    07:00 +19°C° 0 mm 1 mps 736 mmHg 64%
    08:00 +21°C° 0 mm 1 mps 736 mmHg 58%
    09:00 +23°C° 0 mm 1 mps 736 mmHg 53%
    10:00 +24°C° 0 mm 2 mps 736 mmHg 47%
    11:00 +25°C° 0 mm 2 mps 736 mmHg 47%
    12:00 +26°C° 0 mm 2 mps 736 mmHg 46%
    13:00 +26°C° 0 mm 3 mps 735 mmHg 45%
    14:00 +26°C° 0 mm 3 mps 735 mmHg 48%
    15:00 +25°C° 0 mm 3 mps 735 mmHg 51%
    16:00 +25°C° 0 mm 3 mps 735 mmHg 54%
    17:00 +23°C° 0 mm 2 mps 735 mmHg 63%
    18:00 +20°C° 0 mm 2 mps 735 mmHg 71%
    19:00 +19°C° 0 mm 1 mps 735 mmHg 80%
    20:00 +18°C° 0 mm 1 mps 735 mmHg 81%
    21:00 +18°C° 0 mm 1 mps 736 mmHg 82%
    22:00 +18°C° 0 mm 1 mps 736 mmHg 83%
    23:00 +16°C° 0 mm 0 mps 736 mmHg 82%

    Tomorrow, 24 April, Tuesday

    Time Temperature Precipitation Wind Pressure Humidity
    00:00 +15°C° 0 mm 0 mps 736 mmHg 82%
    01:00 +15°C° 0 mm 0 mps 736 mmHg 81%
    02:00 +15°C° 0 mm 0 mps 736 mmHg 81%
    03:00 +15°C° 0 mm 0 mps 736 mmHg 81%
    04:00 +15°C° 0 mm 0 mps 736 mmHg 81%
    05:00 +16°C° 0 mm 0 mps 736 mmHg 75%
    06:00 +18°C° 0 mm 0 mps 736 mmHg 70%
    07:00 +19°C° 0 mm 0 mps 737 mmHg 64%
    08:00 +23°C° 0 mm 1 mps 737 mmHg 59%
    09:00 +24°C° 0 mm 1 mps 737 mmHg 53%
    10:00 +26°C° 0 mm 2 mps 737 mmHg 48%
    11:00 +26°C° 0 mm 2 mps 737 mmHg 47%
    12:00 +27°C° 0 mm 3 mps 737 mmHg 47%
    13:00 +27°C° 0 mm 3 mps 737 mmHg 46%
    14:00 +27°C° 0 mm 3 mps 737 mmHg 48%
    15:00 +26°C° 0 mm 3 mps 736 mmHg 51%
    16:00 +26°C° 0 mm 3 mps 736 mmHg 54%
    17:00 +23°C° 0 mm 2 mps 736 mmHg 63%
    18:00 +20°C° 0 mm 2 mps 736 mmHg 72%
    19:00 +19°C° 0 mm 1 mps 736 mmHg 81%
    20:00 +18°C° 0 mm 1 mps 737 mmHg 82%
    21:00 +18°C° 0 mm 1 mps 737 mmHg 84%
    22:00 +16°C° 0 mm 1 mps 737 mmHg 85%
    23:00 +16°C° 0 mm 1 mps 737 mmHg 83%

    Day after tomorrow, 25 April, Wednesday

    Time Temperature Precipitation Wind Pressure Humidity
    00:00 +15°C° 0 mm 0 mps 737 mmHg 82%
    01:00 +14°C° 0 mm 0 mps 737 mmHg 80%
    02:00 +15°C° 0 mm 1 mps 737 mmHg 78%
    03:00 +15°C° 0 mm 1 mps 737 mmHg 75%
    04:00 +15°C° 0 mm 1 mps 737 mmHg 73%
    05:00 +15°C° 0 mm 0 mps 737 mmHg 66%
    06:00 +17°C° 0 mm 0 mps 737 mmHg 59%
    07:00 +18°C° 0 mm 0 mps 737 mmHg 52%
    08:00 +22°C° 0 mm 1 mps 737 mmHg 46%
    09:00 +24°C° 0 mm 1 mps 737 mmHg 39%
    10:00 +25°C° 0 mm 1 mps 737 mmHg 33%
    11:00 +26°C° 0 mm 2 mps 737 mmHg 32%
    12:00 +26°C° 0 mm 2 mps 737 mmHg 32%
    13:00 +27°C° 0 mm 3 mps 736 mmHg 32%
    14:00 +26°C° 0 mm 3 mps 736 mmHg 35%
    15:00 +26°C° 0 mm 3 mps 736 mmHg 38%
    16:00 +25°C° 0 mm 3 mps 735 mmHg 42%
    17:00 +23°C° 0 mm 2 mps 735 mmHg 51%
    18:00 +21°C° 0 mm 1 mps 735 mmHg 59%
    19:00 +19°C° 0 mm 1 mps 735 mmHg 68%
    20:00 +18°C° 0 mm 1 mps 735 mmHg 69%
    21:00 +18°C° 0 mm 1 mps 736 mmHg 69%
    22:00 +16°C° 0 mm 1 mps 736 mmHg 70%
    23:00 +16°C° 0 mm 1 mps 736 mmHg 66%

    26 April, Thursday

    Time Temperature Precipitation Wind Pressure Humidity
    00:00 +16°C° 0 mm 1 mps 735 mmHg 63%
    01:00 +15°C° 0 mm 0 mps 735 mmHg 60%
    02:00 +16°C° 0 mm 1 mps 735 mmHg 58%
    03:00 +16°C° 0 mm 1 mps 735 mmHg 56%
    04:00 +15°C° 0 mm 1 mps 735 mmHg 55%
    05:00 +18°C° 0 mm 1 mps 735 mmHg 53%
    06:00 +19°C° 0 mm 1 mps 735 mmHg 52%
    07:00 +21°C° 0 mm 1 mps 735 mmHg 50%
    08:00 +22°C° 0 mm 1 mps 735 mmHg 47%
    09:00 +24°C° 0 mm 1 mps 735 mmHg 44%
    10:00 +26°C° 0 mm 1 mps 735 mmHg 41%
    11:00 +26°C° 0 mm 2 mps 735 mmHg 40%
    12:00 +27°C° 0 mm 2 mps 734 mmHg 40%
    13:00 +28°C° 0 mm 2 mps 734 mmHg 39%
    14:00 +27°C° 0 mm 2 mps 733 mmHg 42%
    15:00 +27°C° 0 mm 2 mps 733 mmHg 45%
    16:00 +26°C° 0 mm 2 mps 733 mmHg 48%
    17:00 +24°C° 0.1 mm 2 mps 733 mmHg 57%
    18:00 +22°C° 0.1 mm 1 mps 733 mmHg 66%
    19:00 +20°C° 0.1 mm 1 mps 733 mmHg 75%
    20:00 +20°C° 0 mm 1 mps 733 mmHg 75%
    21:00 +19°C° 0 mm 1 mps 733 mmHg 76%
    22:00 +19°C° 0 mm 1 mps 733 mmHg 76%
    23:00 +19°C° 0 mm 1 mps 733 mmHg 75%

    27 April, Friday

    Time Temperature Precipitation Wind Pressure Humidity
    00:00 +19°C° 0 mm 1 mps 733 mmHg 74%
    01:00 +18°C° 0 mm 1 mps 732 mmHg 73%
    02:00 +18°C° 0 mm 1 mps 732 mmHg 72%
    03:00 +18°C° 0 mm 1 mps 732 mmHg 71%
    04:00 +18°C° 0 mm 1 mps 732 mmHg 71%
    05:00 +19°C° 0 mm 1 mps 732 mmHg 67%
    06:00 +21°C° 0 mm 1 mps 732 mmHg 64%
    07:00 +22°C° 0 mm 1 mps 732 mmHg 60%
    08:00 +24°C° 0 mm 1 mps 733 mmHg 54%
    09:00 +26°C° 0 mm 1 mps 733 mmHg 49%
    10:00 +27°C° 0 mm 1 mps 733 mmHg 43%
    11:00 +28°C° 0 mm 2 mps 732 mmHg 42%
    12:00 +28°C° 0 mm 2 mps 732 mmHg 41%
    13:00 +29°C° 0 mm 3 mps 732 mmHg 40%
    14:00 +28°C° 0.2 mm 3 mps 732 mmHg 44%
    15:00 +27°C° 0.2 mm 2 mps 731 mmHg 49%
    16:00 +26°C° 0.2 mm 2 mps 731 mmHg 53%
    17:00 +24°C° 0.2 mm 1 mps 731 mmHg 60%
    18:00 +23°C° 0.2 mm 1 mps 731 mmHg 68%
    19:00 +21°C° 0.2 mm 1 mps 731 mmHg 75%
    20:00 +20°C° 0.2 mm 1 mps 732 mmHg 76%
    21:00 +20°C° 0.2 mm 1 mps 732 mmHg 76%
    22:00 +20°C° 0.2 mm 1 mps 732 mmHg 77%
    23:00 +19°C° 0.1 mm 1 mps 732 mmHg 77%

    28 April, Saturday

    Time Temperature Precipitation Wind Pressure Humidity
    00:00 +19°C° 0.1 mm 1 mps 732 mmHg 77%
    01:00 +19°C° 0.1 mm 1 mps 732 mmHg 77%
    02:00 +19°C° 0 mm 1 mps 732 mmHg 76%
    03:00 +17°C° 0 mm 2 mps 732 mmHg 76%
    04:00 +17°C° 0 mm 2 mps 731 mmHg 76%
    05:00 +19°C° 0 mm 2 mps 732 mmHg 73%
    06:00 +20°C° 0 mm 2 mps 732 mmHg 69%
    07:00 +22°C° 0 mm 1 mps 732 mmHg 66%
    08:00 +24°C° 0 mm 1 mps 732 mmHg 58%
    09:00 +26°C° 0 mm 1 mps 732 mmHg 51%
    10:00 +27°C° 0 mm 1 mps 732 mmHg 43%
    11:00 +28°C° 0 mm 2 mps 731 mmHg 41%
    12:00 +29°C° 0 mm 2 mps 731 mmHg 39%
    13:00 +29°C° 0 mm 2 mps 731 mmHg 37%
    14:00 +29°C° 0 mm 3 mps 730 mmHg 40%
    15:00 +28°C° 0 mm 3 mps 730 mmHg 44%
    16:00 +27°C° 0 mm 3 mps 730 mmHg 48%
    17:00 +25°C° 0.7 mm 2 mps 730 mmHg 55%
    18:00 +23°C° 0.7 mm 2 mps 730 mmHg 63%
    19:00 +21°C° 0.7 mm 1 mps 730 mmHg 70%
    20:00 +21°C° 0.5 mm 1 mps 730 mmHg 72%
    21:00 +20°C° 0.5 mm 1 mps 731 mmHg 73%
    22:00 +18°C° 0.5 mm 2 mps 731 mmHg 75%
    23:00 +18°C° 0.1 mm 2 mps 731 mmHg 75%
    Show more